Temp
81 81 80 79 79 78 77 77 76 76 76 76 76 76 76 77 77 77 77 77 77 77 77 77 77 78 77 77 77 77 75 76 76 76 76 76 76 76 76 76 75 75 75 75 75 75 75 75 75 74 74 75 75 74 74 74 74 71 76 75 73 72
81 81 81 80 80 79 77 77 77 77 77 77 76 76 76 77 77 77 77 77 77 77 77 77 77 79 77 77 77 77 76 75 76 76 75 76 76 76 76 75 75 75 75 75 75 75 75 75 75 75 74 74 73 74 75 74 72 70 75 75 73 72
83 82 81 81 80 78 78 78 79 78 78 77 76 76 77 78 78 78 78 78 77 77 78 78 77 79 78 78 77 77 76 75 75 76 75 76 76 76 76 75 75 75 75 75 74 75 77 76 75 75 75 74 73 74 74 74 72 71 74 74 73 73
84 82 81 81 80 78 77 78 78 77 77 76 76 77 77 78 78 78 78 77 76 77 78 77 79 80 79 77 77 76 76 75 75 76 76 75 76 76 75 75 75 75 74 75 75 76 77 76 76 74 74 74 75 75 74 74 72 70 74 75 73 73
84 82 83 81 80 78 78 78 78 78 77 77 76 77 77 77 77 78 78 76 78 77 78 78 77 78 78 77 77 75 75 75 75 75 75 75 74 76 74 75 74 74 75 76 77 77 78 75 75 75 74 75 75 76 74 73 71 71 75 73 72 73
79 83 82 82 81 79 78 78 78 78 78 77 77 77 77 77 77 77 77 78 78 77 77 78 77 77 77 77 77 76 75 75 75 75 75 75 75 76 74 77 77 75 76 77 78 78 79 74 75 75 76 75 76 73 74 72 73 74 74 72 72 73
70 77 83 84 82 80 78 79 79 79 78 77 77 77 78 78 78 78 78 78 77 78 77 78 77 77 77 78 77 76 76 76 76 76 75 75 76 76 75 77 77 76 77 79 80 81 80 76 76 77 74 75 76 74 73 75 74 75 74 72 72 73
71 74 80 84 83 81 79 80 79 78 79 78 78 78 78 79 78 78 79 78 78 78 78 78 77 77 77 78 77 77 77 77 77 77 76 76 77 77 76 77 78 79 80 81 82 82 81 79 77 78 76 77 77 73 75 76 76 75 74 72 72 73
72 77 81 82 84 82 81 81 80 79 79 78 78 78 79 79 79 79 79 80 79 77 79 79 78 78 78 77 78 77 77 77 77 78 77 76 77 77 76 77 77 79 79 80 80 80 82 81 80 79 77 78 78 76 77 77 76 76 75 73 72 72
72 78 82 82 82 82 82 81 82 81 80 78 79 79 79 80 80 80 80 80 80 79 78 79 78 79 78 77 77 77 77 77 77 78 77 75 77 77 77 77 78 80 83 81 81 80 79 79 80 80 80 79 78 77 78 78 78 78 76 74 72 71
75 77 83 82 80 81 81 80 82 82 81 80 80 79 79 80 80 80 80 79 80 80 79 79 79 78 78 77 77 77 77 78 78 78 77 77 77 77 77 78 78 78 79 81 80 79 80 78 79 79 80 80 79 79 78 78 79 80 77 75 72 71
69 67 67 73 77 80 80 81 82 82 81 81 80 80 80 80 79 80 80 79 79 79 79 80 78 79 79 78 78 78 78 78 77 78 79 78 78 78 79 81 82 81 79 79 79 79 79 78 79 80 81 82 82 79 80 79 80 80 76 73 73 72
71 70 71 71 68 68 73 80 81 82 82 81 80 80 80 80 80 80 79 79 79 80 79 79 77 78 79 79 78 77 78 78 78 78 78 78 80 78 78 78 78 80 78 78 77 77 81 79 77 78 79 83 81 81 82 79 78 78 74 75 74 73
70 71 72 71 71 70 71 70 72 78 81 81 80 80 80 80 80 80 80 79 79 81 79 79 80 78 78 78 77 78 78 77 79 78 78 78 77 77 77 77 78 78 78 77 77 76 76 76 76 77 77 81 80 79 79 79 77 78 76 75 75 73
72 71 71 70 70 70 71 71 71 71 75 80 80 80 80 80 80 79 80 79 79 79 80 79 79 77 78 78 78 77 78 78 78 78 78 77 77 77 76 77 77 76 76 75 78 77 76 76 75 75 76 78 78 80 79 78 77 76 77 77 76 74
71 71 71 70 70 70 70 70 69 70 70 76 80 80 80 80 81 81 80 79 79 79 79 79 79 79 77 78 78 77 77 78 79 78 78 77 78 76 76 76 76 77 73 76 76 75 77 75 75 76 76 76 76 77 77 77 77 78 78 77 76 75
71 71 71 71 71 71 71 71 70 70 70 71 75 80 81 80 80 80 80 80 79 79 79 79 79 79 77 78 79 78 79 78 78 78 76 76 76 77 75 76 74 75 75 72 75 75 76 75 75 75 75 75 76 76 76 77 78 78 81 76 76 76
70 72 71 71 71 70 70 70 69 70 71 70 72 79 80 81 80 81 81 80 79 79 78 79 79 79 77 78 79 79 79 78 78 76 76 75 75 76 75 75 73 74 75 75 73 76 74 75 76 76 75 75 75 75 75 75 76 76 76 78 76 76
71 72 72 71 71 71 70 70 69 70 70 70 70 71 78 80 80 80 80 80 80 79 78 79 79 79 77 78 78 79 78 78 77 76 75 76 75 75 75 75 74 74 75 75 74 74 75 75 77 77 79 76 74 75 75 75 75 75 75 78 77 78
72 72 71 71 70 70 69 69 68 68 68 68 70 70 74 80 79 80 80 80 80 78 79 78 79 79 77 77 77 77 77 78 77 76 75 74 74 75 74 74 73 74 74 75 76 75 75 74 74 74 73 74 75 76 78 75 75 77 75 76 76 76
71 72 71 70 69 68 68 68 68 67 67 69 69 69 71 77 79 79 80 80 80 79 79 79 79 79 77 77 77 77 77 77 77 77 75 74 74 75 75 74 73 73 74 72 73 75 76 75 72 70 72 72 72 75 76 76 77 77 77 76 75 74
71 71 71 71 69 68 69 69 68 67 67 68 68 68 70 75 76 79 79 80 79 79 79 78 78 78 77 77 76 76 76 76 76 76 75 75 75 75 75 74 74 72 75 73 71 76 75 74 70 69 67 68 70 72 74 73 77 79 79 78 77 75
70 70 70 71 70 69 69 69 69 69 68 67 69 69 70 74 77 77 77 79 79 79 79 79 78 78 78 78 77 76 76 76 76 76 74 74 74 74 74 74 74 72 71 74 73 75 74 74 69 71 70 68 65 65 68 70 73 76 78 78 78 78
70 70 70 69 70 71 70 69 68 69 69 68 68 70 70 71 74 76 76 77 79 78 79 79 80 79 79 78 77 76 76 76 76 76 75 73 73 73 73 73 74 73 72 70 72 73 76 74 73 71 66 66 66 66 63 64 67 72 76 78 79 80
70 69 69 68 69 70 70 70 68 68 69 68 68 67 67 69 73 75 76 76 78 80 79 80 79 79 79 78 77 77 76 76 76 76 76 75 74 74 74 75 74 73 73 71 70 71 73 75 73 74 71 67 65 64 65 67 69 68 73 74 77 80
71 69 68 68 68 68 67 67 67 65 65 64 64 65 65 66 68 73 75 77 79 80 80 80 80 79 80 79 77 77 77 77 76 75 75 75 75 75 74 75 75 74 73 73 71 71 70 73 73 74 74 72 71 67 65 70 69 62 71 74 75 79
74 70 68 68 67 67 66 67 66 65 66 66 64 65 68 70 72 75 76 75 77 77 80 79 79 79 79 79 78 77 77 77 77 76 76 75 74 74 75 76 76 75 74 73 72 70 70 71 72 73 75 74 72 72 74 67 65 67 62 68 72 74
74 71 68 67 67 66 65 65 65 65 66 65 64 66 66 68 71 70 70 76 76 76 78 79 78 80 79 79 78 77 77 77 77 77 76 75 74 75 75 76 75 75 74 74 73 70 70 72 70 70 74 73 72 74 74 73 73 69 67 64 66 73
74 75 67 67 65 65 66 65 65 65 64 66 66 66 67 68 67 69 67 68 73 76 76 78 79 78 79 80 78 77 78 77 76 77 77 76 75 76 75 74 74 74 73 73 73 73 71 71 72 71 70 70 72 71 73 73 73 72 67 66 66 67
74 74 73 67 66 66 66 65 63 64 63 63 65 66 67 67 67 67 66 68 68 73 76 76 77 78 78 80 79 78 78 77 77 77 77 76 76 75 75 75 75 74 74 73 73 73 72 72 73 73 73 71 69 69 70 71 71 70 69 70 65 68
73 74 74 73 71 68 66 65 63 63 64 64 65 66 66 66 65 67 66 67 67 71 75 75 76 76 77 79 79 78 78 78 77 76 76 77 76 76 76 75 76 75 74 73 73 73 72 73 73 72 74 72 70 70 69 69 69 70 70 68 68 69
72 73 73 74 72 71 70 66 64 64 64 66 66 67 66 66 66 66 66 66 66 66 69 74 75 75 76 77 77 77 77 77 77 76 76 77 77 77 76 77 76 75 75 74 74 73 73 72 72 72 72 73 72 72 72 71 72 71 70 69 69 68
71 72 73 73 72 71 69 69 67 66 67 67 67 67 66 66 66 65 66 66 66 66 67 69 73 74 75 76 77 76 76 76 76 76 76 77 77 78 76 76 76 75 75 74 74 73 73 72 73 72 72 73 73 74 73 75 74 72 72 72 70 67
70 72 72 73 73 72 71 69 69 68 68 68 67 67 67 66 67 66 66 66 66 66 67 68 73 74 76 77 77 77 76 76 77 77 76 76 77 78 77 77 76 75 75 75 74 73 73 73 73 73 74 73 73 74 74 75 75 74 72 71 69 69
69 71 72 72 72 72 72 70 69 69 68 68 67 67 67 67 66 66 66 66 67 67 67 68 70 75 76 77 77 77 77 76 76 76 76 76 76 77 77 77 76 75 75 75 74 74 73 74 73 74 73 73 73 74 74 75 75 75 76 74 72 71
69 70 71 72 72 72 72 72 68 67 67 67 67 67 67 66 66 66 67 66 66 67 67 68 69 74 76 77 77 77 77 77 77 77 76 76 76 77 77 76 76 75 75 76 74 74 74 74 74 74 74 74 74 75 75 75 76 74 75 75 74 72
68 70 70 71 71 72 72 72 70 68 68 67 67 66 66 66 67 67 67 66 66 67 69 69 69 72 75 76 77 76 76 76 76 76 76 76 77 77 77 76 76 75 74 76 75 74 74 74 74 74 74 74 74 73 74 75 75 75 74 74 74 73
MSLP
1011.20 1011.32 1011.52 1011.72 1011.96 1012.32 1012.64 1012.88 1013.00 1013.12 1013.32 1013.60 1013.84 1014.04 1014.28 1014.48 1014.76 1015.00 1015.24 1015.40 1015.60 1015.84 1016.12 1016.36 1016.60 1016.72 1016.96 1017.16 1017.36 1017.56 1017.80 1017.92 1017.96 1018.00 1018.12 1018.24 1018.32 1018.40 1018.52 1018.56 1018.56 1018.60 1018.76 1018.92 1019.08 1019.24 1019.36 1019.52 1019.64 1019.72 1019.60 1019.64 1019.72 1019.68 1019.60 1019.68 1019.80 1019.96 1020.04 1020.20 1020.40 1020.60
1011.24 1011.36 1011.48 1011.60 1011.84 1012.16 1012.52 1012.80 1013.00 1013.20 1013.40 1013.60 1013.84 1014.04 1014.24 1014.40 1014.64 1014.92 1015.12 1015.32 1015.52 1015.72 1016.00 1016.20 1016.44 1016.56 1016.84 1017.00 1017.28 1017.52 1017.72 1017.88 1017.92 1018.00 1018.12 1018.24 1018.32 1018.44 1018.56 1018.60 1018.64 1018.64 1018.76 1018.92 1019.08 1019.24 1019.36 1019.52 1019.60 1019.68 1019.64 1019.64 1019.76 1019.72 1019.64 1019.76 1020.00 1020.16 1020.12 1020.36 1020.48 1020.68
1011.16 1011.32 1011.56 1011.60 1011.76 1012.12 1012.36 1012.56 1012.80 1013.08 1013.28 1013.56 1013.76 1013.96 1014.20 1014.32 1014.48 1014.68 1014.92 1015.12 1015.32 1015.52 1015.76 1015.96 1016.28 1016.36 1016.68 1016.84 1017.12 1017.40 1017.64 1017.84 1017.92 1018.00 1018.12 1018.24 1018.32 1018.44 1018.56 1018.64 1018.64 1018.68 1018.76 1018.88 1019.04 1019.08 1019.04 1019.28 1019.52 1019.60 1019.64 1019.68 1019.76 1019.76 1019.80 1019.84 1020.12 1020.20 1020.20 1020.32 1020.48 1020.68
1011.04 1011.28 1011.44 1011.52 1011.68 1012.04 1012.36 1012.36 1012.64 1012.92 1013.12 1013.44 1013.64 1013.84 1014.00 1014.12 1014.24 1014.40 1014.68 1014.92 1015.16 1015.36 1015.56 1015.76 1016.04 1016.16 1016.44 1016.72 1016.96 1017.28 1017.52 1017.76 1017.88 1017.96 1018.08 1018.24 1018.36 1018.44 1018.56 1018.60 1018.68 1018.72 1018.76 1018.80 1018.88 1018.92 1018.96 1019.04 1019.28 1019.48 1019.64 1019.64 1019.68 1019.64 1019.80 1019.92 1019.92 1020.00 1020.08 1020.36 1020.52 1020.64
1010.68 1011.12 1011.36 1011.28 1011.60 1011.92 1012.16 1012.28 1012.40 1012.68 1012.96 1013.20 1013.44 1013.60 1013.76 1013.92 1014.04 1014.20 1014.48 1014.76 1015.00 1015.24 1015.40 1015.52 1015.80 1016.08 1016.32 1016.56 1016.84 1017.24 1017.40 1017.64 1017.76 1017.96 1018.04 1018.20 1018.32 1018.36 1018.52 1018.60 1018.64 1018.72 1018.64 1018.56 1018.64 1018.68 1018.76 1019.00 1019.12 1019.28 1019.44 1019.48 1019.52 1019.64 1019.80 1019.88 1019.96 1019.84 1020.08 1020.36 1020.52 1020.56
1011.48 1011.16 1011.44 1011.28 1011.40 1011.68 1011.96 1012.20 1012.24 1012.28 1012.60 1012.92 1013.12 1013.28 1013.44 1013.68 1013.88 1014.08 1014.32 1014.60 1014.84 1015.16 1015.32 1015.40 1015.64 1016.00 1016.20 1016.36 1016.64 1017.00 1017.16 1017.36 1017.60 1017.76 1017.88 1018.04 1018.12 1018.12 1018.36 1018.24 1018.32 1018.52 1018.44 1018.24 1018.32 1018.40 1018.48 1018.76 1019.04 1019.12 1019.28 1019.40 1019.36 1019.56 1019.68 1019.84 1019.88 1019.84 1020.08 1020.44 1020.52 1020.52
1012.80 1012.08 1011.68 1011.52 1011.36 1011.52 1011.84 1011.76 1011.88 1011.92 1012.24 1012.60 1012.76 1013.00 1013.12 1013.32 1013.56 1013.84 1014.12 1014.36 1014.72 1014.96 1015.12 1015.24 1015.52 1015.84 1016.08 1016.12 1016.44 1016.64 1016.88 1017.04 1017.32 1017.48 1017.60 1017.80 1017.88 1017.84 1018.00 1018.00 1018.04 1018.16 1018.12 1018.04 1018.00 1018.08 1018.20 1018.48 1018.68 1018.84 1019.04 1019.24 1019.28 1019.48 1019.68 1019.80 1019.76 1019.80 1020.00 1020.20 1020.44 1020.48
1011.32 1012.04 1011.60 1011.44 1011.36 1011.64 1011.76 1011.68 1011.72 1011.84 1012.00 1012.20 1012.40 1012.72 1012.80 1013.00 1013.20 1013.48 1013.72 1013.96 1014.24 1014.56 1014.84 1015.08 1015.28 1015.56 1015.84 1015.92 1016.16 1016.28 1016.52 1016.76 1016.92 1017.12 1017.24 1017.48 1017.60 1017.64 1017.76 1017.72 1017.72 1017.84 1017.92 1017.84 1017.76 1017.68 1017.92 1018.20 1018.48 1018.52 1018.92 1019.12 1019.16 1019.40 1019.60 1019.48 1019.48 1019.68 1019.80 1020.08 1020.28 1020.40
1010.24 1010.36 1010.60 1010.84 1011.00 1011.28 1011.48 1011.60 1011.68 1011.80 1011.92 1012.00 1012.20 1012.36 1012.48 1012.64 1012.96 1013.12 1013.28 1013.52 1013.88 1014.32 1014.48 1014.72 1014.96 1015.24 1015.52 1015.80 1015.88 1016.04 1016.24 1016.48 1016.60 1016.76 1016.88 1017.24 1017.24 1017.40 1017.52 1017.52 1017.48 1017.56 1017.64 1017.64 1017.48 1017.32 1017.32 1017.56 1017.92 1018.16 1018.56 1018.80 1018.92 1019.12 1019.24 1019.20 1019.24 1019.52 1019.64 1019.96 1020.12 1020.28
1010.52 1010.16 1010.24 1010.56 1010.60 1010.96 1011.16 1011.52 1011.56 1011.68 1011.68 1011.96 1012.08 1012.12 1012.24 1012.44 1012.64 1012.84 1013.12 1013.20 1013.52 1013.88 1014.16 1014.36 1014.60 1014.80 1015.28 1015.68 1015.72 1015.76 1015.96 1016.12 1016.28 1016.36 1016.52 1017.00 1016.96 1017.00 1017.24 1017.32 1017.24 1017.28 1017.32 1017.40 1017.28 1017.20 1017.20 1017.36 1017.60 1017.72 1018.00 1018.36 1018.60 1018.72 1018.72 1018.84 1018.96 1019.12 1019.36 1019.68 1019.88 1020.16
1011.72 1011.32 1010.56 1010.64 1010.68 1010.76 1010.92 1011.32 1011.36 1011.40 1011.52 1011.76 1011.88 1011.96 1012.16 1012.24 1012.40 1012.60 1012.80 1013.00 1013.20 1013.44 1013.76 1013.96 1014.24 1014.48 1014.84 1015.20 1015.40 1015.56 1015.68 1015.76 1016.04 1016.12 1016.16 1016.52 1016.60 1016.68 1016.76 1017.00 1017.04 1017.04 1017.12 1017.08 1017.04 1016.92 1017.16 1017.36 1017.40 1017.56 1017.56 1017.72 1018.12 1018.16 1018.32 1018.36 1018.48 1018.56 1019.04 1019.36 1019.76 1020.00
1012.16 1012.48 1012.40 1011.88 1011.32 1011.00 1011.00 1011.12 1011.08 1011.08 1011.32 1011.32 1011.48 1011.76 1011.96 1012.08 1012.24 1012.32 1012.44 1012.72 1012.88 1013.12 1013.36 1013.60 1013.84 1014.08 1014.44 1014.80 1015.04 1015.20 1015.32 1015.48 1015.68 1015.72 1015.84 1016.04 1016.36 1016.36 1016.44 1016.56 1016.60 1016.56 1016.72 1016.72 1016.80 1016.80 1016.84 1017.16 1017.36 1017.44 1017.36 1017.52 1017.64 1018.00 1018.16 1018.12 1018.24 1018.36 1018.80 1019.24 1019.56 1019.76
1010.84 1011.52 1011.88 1012.08 1012.76 1012.76 1012.24 1011.48 1010.88 1010.80 1010.96 1011.12 1011.20 1011.36 1011.72 1011.92 1012.00 1012.12 1012.24 1012.48 1012.68 1012.84 1013.00 1013.32 1013.52 1013.68 1013.96 1014.32 1014.64 1014.92 1015.08 1015.20 1015.32 1015.40 1015.52 1015.68 1015.92 1016.16 1016.20 1016.40 1016.56 1016.28 1016.56 1016.72 1016.76 1016.80 1016.68 1016.96 1017.24 1017.32 1017.24 1017.24 1017.40 1017.72 1017.72 1017.92 1018.08 1018.32 1018.76 1018.96 1019.28 1019.52
1011.04 1011.36 1011.60 1011.44 1011.40 1011.72 1012.20 1012.52 1012.24 1011.20 1010.76 1011.00 1011.12 1011.28 1011.48 1011.72 1011.88 1012.08 1012.20 1012.40 1012.64 1012.72 1012.92 1013.04 1013.28 1013.52 1013.64 1014.04 1014.36 1014.64 1014.84 1014.96 1015.04 1015.16 1015.24 1015.40 1015.76 1015.96 1016.24 1016.40 1016.52 1016.44 1016.64 1016.84 1016.92 1016.80 1016.84 1017.16 1017.20 1017.16 1017.28 1017.08 1017.16 1017.52 1017.56 1017.88 1018.04 1018.12 1018.40 1018.72 1018.92 1019.32
1010.64 1010.76 1011.16 1011.40 1011.56 1011.48 1011.16 1011.28 1012.16 1012.60 1011.84 1010.92 1011.00 1011.20 1011.44 1011.64 1011.84 1012.00 1012.12 1012.36 1012.56 1012.76 1012.88 1013.00 1013.08 1013.40 1013.60 1013.76 1014.12 1014.44 1014.60 1014.64 1014.72 1014.92 1015.08 1015.16 1015.48 1015.76 1016.08 1016.44 1016.44 1016.68 1016.64 1016.72 1016.76 1016.72 1016.84 1017.08 1017.24 1017.32 1017.28 1017.12 1017.28 1017.28 1017.44 1017.72 1017.84 1018.04 1018.20 1018.36 1018.72 1019.08
1010.64 1010.76 1010.96 1011.20 1011.28 1011.36 1011.52 1011.32 1011.08 1012.00 1012.80 1011.88 1011.04 1011.16 1011.32 1011.52 1011.72 1011.88 1012.04 1012.28 1012.44 1012.68 1012.84 1012.92 1013.00 1013.16 1013.48 1013.60 1013.84 1014.20 1014.32 1014.36 1014.48 1014.64 1014.88 1015.04 1015.24 1015.72 1015.96 1016.28 1016.32 1016.40 1016.80 1016.84 1016.80 1016.88 1016.68 1017.00 1017.16 1017.24 1017.16 1017.12 1017.16 1017.20 1017.40 1017.60 1017.92 1018.00 1018.08 1018.20 1018.44 1018.76
1010.72 1010.76 1010.92 1011.12 1011.48 1011.68 1011.80 1011.72 1011.44 1011.24 1012.12 1012.72 1011.72 1011.20 1011.24 1011.32 1011.52 1011.72 1011.84 1012.08 1012.28 1012.48 1012.60 1012.72 1012.84 1012.88 1013.12 1013.36 1013.60 1013.88 1014.00 1014.16 1014.24 1014.44 1014.72 1014.92 1015.20 1015.40 1015.76 1016.12 1016.24 1016.16 1016.32 1016.72 1016.76 1016.92 1016.80 1016.84 1017.12 1017.16 1017.08 1017.12 1017.12 1017.20 1017.40 1017.52 1017.76 1017.84 1017.84 1018.16 1018.32 1018.40
1010.68 1010.72 1010.84 1011.00 1011.28 1011.64 1011.76 1011.80 1011.84 1011.40 1011.04 1012.20 1012.44 1011.24 1011.12 1011.20 1011.40 1011.40 1011.52 1011.80 1011.92 1012.16 1012.32 1012.44 1012.52 1012.64 1012.92 1013.04 1013.24 1013.52 1013.68 1013.88 1014.08 1014.28 1014.52 1014.80 1015.12 1015.28 1015.60 1015.88 1016.24 1016.12 1016.16 1016.36 1016.64 1016.88 1016.92 1016.76 1016.88 1017.08 1017.12 1017.12 1017.12 1017.16 1017.28 1017.40 1017.44 1017.52 1017.76 1018.08 1018.20 1018.28
1010.56 1010.72 1010.84 1010.96 1011.28 1011.72 1011.80 1011.76 1011.76 1011.88 1011.32 1011.08 1012.20 1012.44 1011.40 1011.24 1011.16 1011.20 1011.40 1011.44 1011.56 1011.76 1011.96 1012.08 1012.24 1012.40 1012.76 1012.96 1013.12 1013.20 1013.40 1013.60 1013.88 1014.16 1014.40 1014.72 1015.00 1015.28 1015.56 1015.76 1016.00 1016.16 1016.00 1016.00 1016.24 1016.40 1016.60 1016.56 1016.76 1016.92 1017.00 1017.08 1017.04 1017.16 1017.16 1017.24 1017.32 1017.44 1017.52 1017.64 1017.80 1018.00
1010.32 1010.56 1010.76 1011.04 1011.32 1011.72 1011.92 1012.00 1012.08 1011.96 1011.88 1011.24 1011.44 1012.52 1012.16 1011.16 1010.92 1011.00 1011.04 1011.16 1011.32 1011.48 1011.60 1011.76 1011.88 1012.12 1012.48 1012.76 1012.96 1013.04 1013.16 1013.28 1013.60 1013.92 1014.28 1014.60 1014.84 1015.12 1015.52 1015.76 1015.84 1015.92 1016.16 1016.08 1015.88 1016.08 1016.24 1016.40 1016.52 1016.76 1016.96 1016.92 1016.88 1017.00 1017.16 1017.24 1017.36 1017.40 1017.44 1017.48 1017.52 1017.60
1010.36 1010.44 1010.84 1011.24 1011.48 1011.68 1012.00 1012.20 1012.24 1012.16 1012.12 1011.64 1011.36 1011.96 1012.36 1011.28 1010.96 1010.84 1010.80 1010.88 1011.04 1011.28 1011.48 1011.64 1011.72 1011.84 1012.20 1012.48 1012.68 1012.80 1012.92 1013.04 1013.28 1013.64 1014.00 1014.20 1014.32 1014.72 1015.00 1015.36 1015.64 1015.68 1016.00 1016.32 1016.28 1015.96 1016.04 1016.08 1016.72 1017.16 1016.92 1017.08 1017.12 1016.84 1017.00 1017.12 1017.28 1017.28 1017.32 1017.32 1017.28 1017.44
1010.64 1010.56 1010.64 1010.84 1011.16 1011.36 1011.44 1011.60 1011.84 1011.96 1012.04 1011.92 1011.96 1012.40 1012.72 1011.68 1011.16 1010.84 1010.72 1010.68 1010.72 1010.96 1011.20 1011.48 1011.56 1011.64 1011.84 1012.16 1012.52 1012.64 1012.72 1012.84 1013.04 1013.40 1013.68 1013.84 1014.08 1014.40 1014.76 1015.12 1015.40 1015.72 1015.48 1015.96 1016.32 1015.92 1015.96 1016.20 1016.96 1017.40 1017.92 1017.96 1017.64 1017.28 1017.00 1017.08 1017.12 1017.04 1017.00 1017.04 1017.12 1017.28
1010.76 1010.80 1010.76 1010.84 1011.12 1011.44 1011.44 1011.48 1011.72 1011.64 1011.68 1011.96 1011.92 1012.36 1012.48 1011.72 1011.24 1011.32 1011.00 1010.68 1010.56 1010.64 1010.84 1011.12 1011.28 1011.36 1011.64 1011.84 1012.16 1012.44 1012.56 1012.48 1012.68 1013.00 1013.52 1013.80 1013.96 1014.32 1014.48 1014.80 1015.04 1015.44 1015.72 1015.52 1015.80 1015.64 1015.80 1015.76 1016.72 1016.68 1017.00 1017.88 1018.64 1018.88 1017.96 1017.56 1017.16 1017.04 1016.88 1016.80 1016.76 1016.96
1010.52 1010.64 1010.88 1011.28 1011.00 1010.88 1011.16 1011.44 1011.84 1011.84 1011.56 1011.32 1011.64 1012.00 1012.44 1012.04 1011.60 1011.36 1011.28 1010.84 1010.56 1010.48 1010.52 1010.76 1010.88 1011.04 1011.20 1011.44 1011.76 1012.08 1012.20 1012.24 1012.36 1012.52 1013.00 1013.56 1013.84 1014.08 1014.16 1014.40 1014.60 1014.88 1015.16 1015.96 1015.84 1015.72 1015.28 1015.40 1015.72 1016.40 1018.00 1017.84 1018.00 1018.40 1019.20 1018.60 1018.08 1017.24 1016.68 1016.68 1016.60 1016.56
1010.20 1010.36 1010.44 1010.76 1010.88 1010.80 1011.04 1011.36 1011.72 1011.92 1011.96 1011.80 1011.64 1011.80 1012.36 1012.56 1011.92 1011.40 1011.24 1011.00 1010.64 1010.28 1010.28 1010.32 1010.44 1010.60 1010.76 1011.00 1011.24 1011.52 1011.72 1011.84 1012.00 1012.20 1012.56 1013.04 1013.36 1013.52 1013.64 1013.76 1014.00 1014.44 1014.72 1015.20 1015.68 1015.60 1015.32 1015.08 1015.28 1015.12 1016.08 1017.36 1018.08 1018.36 1018.16 1017.48 1017.56 1017.40 1016.72 1016.92 1016.52 1016.32
1010.00 1010.00 1010.32 1010.20 1010.24 1010.72 1010.88 1010.96 1011.32 1011.80 1012.12 1012.04 1012.20 1012.28 1012.16 1012.16 1012.72 1011.92 1011.36 1010.64 1010.24 1009.92 1009.96 1009.96 1010.00 1010.20 1010.40 1010.64 1010.92 1011.08 1011.28 1011.44 1011.60 1011.88 1012.12 1012.44 1012.72 1013.08 1013.28 1013.44 1013.48 1013.72 1014.16 1014.40 1014.88 1015.36 1015.56 1014.88 1014.84 1014.96 1014.96 1015.24 1015.64 1016.92 1017.24 1016.64 1017.20 1018.68 1016.68 1016.32 1016.36 1016.08
1009.68 1009.88 1010.00 1009.88 1009.84 1009.96 1010.28 1010.44 1010.84 1011.40 1011.64 1011.60 1011.72 1011.56 1011.04 1010.72 1010.96 1010.92 1010.72 1010.60 1010.16 1009.76 1009.56 1009.72 1009.76 1009.88 1010.08 1010.28 1010.52 1010.72 1010.88 1011.00 1011.16 1011.40 1011.64 1012.00 1012.32 1012.52 1012.68 1012.80 1012.92 1013.28 1013.56 1013.84 1014.32 1015.00 1015.00 1015.00 1014.92 1014.92 1014.80 1014.84 1015.12 1015.28 1015.40 1016.44 1017.36 1017.00 1018.40 1017.08 1016.36 1016.24
1009.44 1009.56 1009.80 1009.72 1009.56 1009.76 1010.12 1010.12 1010.32 1010.60 1011.08 1011.64 1012.04 1011.44 1010.96 1010.60 1010.36 1010.72 1011.00 1010.52 1010.24 1009.84 1009.44 1009.36 1009.48 1009.56 1009.68 1009.88 1010.08 1010.32 1010.48 1010.68 1010.80 1010.92 1011.20 1011.48 1011.72 1011.88 1012.16 1012.32 1012.48 1012.72 1013.08 1013.36 1013.76 1014.24 1014.40 1014.32 1014.96 1015.08 1014.64 1014.96 1015.04 1015.04 1015.08 1015.12 1015.32 1016.24 1016.88 1017.92 1017.52 1016.16
1009.36 1009.24 1009.68 1009.60 1009.52 1009.48 1009.76 1010.04 1010.24 1010.44 1010.84 1011.08 1011.76 1011.68 1011.40 1010.64 1010.16 1010.48 1011.68 1011.64 1010.64 1009.92 1009.48 1009.16 1009.12 1009.28 1009.36 1009.48 1009.64 1009.84 1010.00 1010.24 1010.40 1010.48 1010.68 1011.00 1011.20 1011.36 1011.68 1011.96 1012.24 1012.52 1012.80 1012.96 1013.08 1013.24 1013.68 1013.84 1014.00 1014.48 1014.80 1015.00 1015.04 1015.24 1015.16 1015.08 1015.08 1015.28 1016.32 1017.00 1017.12 1017.08
1009.32 1009.08 1009.04 1009.52 1009.48 1009.32 1009.40 1009.88 1010.56 1010.44 1010.32 1010.40 1010.92 1011.44 1011.48 1011.16 1010.72 1010.24 1010.68 1011.36 1011.40 1010.40 1009.64 1009.28 1009.08 1009.04 1009.16 1009.16 1009.32 1009.44 1009.60 1009.76 1009.88 1010.00 1010.24 1010.48 1010.72 1010.96 1011.16 1011.40 1011.60 1011.88 1012.16 1012.60 1012.64 1012.84 1013.08 1013.20 1013.28 1013.52 1013.88 1014.48 1015.16 1015.32 1015.44 1015.40 1015.32 1015.52 1015.64 1015.84 1016.76 1016.52
1009.20 1009.04 1008.84 1008.76 1008.88 1009.16 1009.32 1009.80 1010.20 1010.00 1009.96 1010.00 1010.08 1010.64 1010.96 1010.84 1011.20 1011.00 1010.68 1010.52 1011.12 1010.68 1009.84 1009.24 1008.96 1008.92 1008.96 1009.00 1009.04 1009.08 1009.20 1009.28 1009.40 1009.60 1009.80 1010.04 1010.20 1010.32 1010.52 1010.84 1011.04 1011.36 1011.72 1012.08 1012.32 1012.48 1012.68 1012.80 1012.96 1013.12 1013.36 1013.80 1014.44 1014.72 1015.00 1015.28 1015.24 1015.16 1015.48 1015.92 1016.20 1016.20
1009.16 1009.00 1008.84 1008.64 1008.68 1008.68 1008.92 1009.52 1009.80 1009.80 1009.92 1009.96 1010.08 1010.32 1010.36 1010.28 1010.40 1010.80 1010.64 1010.12 1010.08 1010.76 1010.36 1009.36 1008.92 1008.84 1008.84 1008.80 1008.80 1008.76 1008.76 1008.96 1009.16 1009.28 1009.36 1009.36 1009.56 1009.80 1010.00 1010.24 1010.60 1010.92 1011.24 1011.56 1011.84 1012.12 1012.32 1012.64 1012.76 1012.92 1013.00 1013.24 1013.68 1013.92 1014.20 1014.44 1014.32 1014.44 1014.84 1015.16 1015.44 1015.72
1009.28 1008.88 1008.76 1008.64 1008.56 1008.52 1008.68 1008.84 1009.24 1009.48 1009.56 1009.60 1009.60 1009.64 1009.68 1009.76 1009.68 1009.88 1010.04 1010.04 1010.00 1010.12 1010.40 1010.08 1009.16 1008.72 1008.44 1008.44 1008.32 1008.40 1008.44 1008.56 1008.68 1008.72 1008.84 1008.96 1009.08 1009.28 1009.52 1009.76 1010.08 1010.48 1010.80 1011.16 1011.40 1011.64 1012.00 1012.16 1012.32 1012.68 1012.80 1012.76 1013.04 1013.36 1013.64 1013.52 1013.64 1013.88 1013.92 1014.20 1014.68 1015.52
1009.24 1008.84 1008.64 1008.56 1008.40 1008.28 1008.24 1008.44 1008.52 1008.68 1008.88 1008.92 1008.96 1009.00 1009.00 1009.04 1008.84 1008.96 1009.00 1009.12 1009.24 1009.36 1009.88 1009.92 1009.12 1008.36 1007.64 1007.64 1007.72 1007.64 1007.72 1007.84 1007.96 1008.12 1008.40 1008.52 1008.64 1008.80 1009.04 1009.32 1009.68 1010.08 1010.40 1010.64 1010.96 1011.36 1011.64 1011.84 1012.00 1012.16 1012.24 1012.60 1012.76 1012.84 1012.92 1012.88 1013.08 1013.24 1013.52 1013.96 1014.56 1014.92
1009.20 1008.80 1008.56 1008.36 1008.20 1008.04 1007.84 1007.88 1008.00 1008.12 1008.20 1008.36 1008.56 1008.56 1008.32 1008.20 1008.24 1008.36 1008.36 1008.56 1008.68 1008.80 1009.28 1009.60 1009.08 1007.96 1007.24 1007.08 1007.16 1007.20 1007.28 1007.52 1007.64 1007.76 1007.92 1008.20 1008.36 1008.52 1008.64 1008.88 1009.24 1009.64 1010.00 1010.28 1010.68 1011.08 1011.40 1011.56 1011.76 1011.92 1012.04 1012.16 1012.36 1012.44 1012.48 1012.48 1012.52 1012.68 1012.72 1013.12 1013.60 1013.96
1008.96 1008.68 1008.44 1008.16 1007.92 1007.68 1007.48 1007.36 1007.56 1007.76 1007.76 1007.76 1007.80 1008.04 1008.00 1007.76 1007.80 1007.96 1008.00 1007.96 1007.96 1008.12 1008.44 1009.04 1009.00 1008.04 1006.92 1006.40 1006.52 1006.76 1006.92 1007.12 1007.24 1007.44 1007.60 1007.80 1008.08 1008.24 1008.32 1008.56 1008.88 1009.24 1009.72 1009.80 1010.40 1010.76 1011.04 1011.24 1011.40 1011.52 1011.72 1011.84 1012.04 1012.16 1012.12 1012.12 1012.12 1012.20 1012.24 1012.36 1012.68 1013.04
1008.92 1008.56 1008.32 1008.00 1007.68 1007.32 1007.12 1007.00 1007.00 1007.00 1007.12 1007.16 1007.32 1007.56 1007.48 1007.20 1007.04 1007.08 1007.36 1007.52 1007.48 1007.28 1007.36 1007.80 1008.08 1007.80 1006.92 1006.16 1005.84 1006.16 1006.56 1006.80 1007.00 1007.16 1007.32 1007.44 1007.68 1007.88 1008.00 1008.20 1008.48 1008.88 1009.32 1009.48 1009.92 1010.36 1010.64 1010.96 1011.08 1011.20 1011.48 1011.60 1011.76 1011.84 1011.80 1011.72 1011.84 1011.88 1011.96 1012.04 1012.12 1012.32
Wind_Speed
13 14 14 13 11 13 13 17 17 19 19 17 16 17 17 18 18 16 16 16 15 11 9 8 9 9 12 9 11 10 10 9 8 8 8 7 8 7 8 8 8 8 7 7 6 5 5 5 5 4 5 6 5 4 2 3 3 4 2 6 8 7
11 15 13 10 11 10 12 16 15 14 13 15 15 17 15 13 14 11 16 12 9 8 8 8 8 9 8 9 10 11 11 9 9 8 8 8 8 8 8 8 8 9 8 7 7 4 4 5 6 6 6 6 2 3 2 2 4 3 4 6 7 10
13 13 14 12 10 9 15 11 14 13 12 14 12 13 12 13 12 12 12 11 8 7 8 8 7 8 8 11 10 12 11 10 10 9 9 9 9 9 8 8 8 8 8 8 5 4 4 5 4 8 6 4 3 1 1 2 4 3 2 6 7 14
13 13 12 8 9 9 10 10 9 10 9 10 10 11 11 11 11 10 11 8 7 7 7 7 12 15 13 8 8 13 12 11 10 9 10 7 9 9 9 9 8 8 6 5 4 4 2 4 5 4 4 4 4 2 2 1 3 2 1 8 8 16
12 11 14 9 10 10 10 8 10 10 10 9 10 10 9 9 9 9 10 8 9 7 7 6 8 7 7 7 7 7 7 6 5 5 9 5 5 6 7 6 5 5 4 5 6 4 4 3 4 5 5 5 3 3 3 3 3 3 3 5 8 16
5 11 8 8 11 10 11 9 10 11 10 10 10 10 10 9 8 9 9 9 9 8 8 7 8 8 7 7 8 7 7 6 6 6 7 5 5 5 6 6 6 6 5 5 6 5 4 6 4 4 4 4 4 3 3 3 3 4 6 6 8 16
7 6 10 10 9 10 11 9 10 11 11 11 11 10 9 9 9 10 10 10 9 9 8 7 9 8 8 8 7 8 7 7 7 6 7 6 6 5 6 5 5 5 5 6 6 7 7 7 6 6 4 4 3 3 2 4 3 5 7 7 9 16
9 12 8 12 11 10 10 11 10 11 11 12 11 10 9 9 9 10 11 10 9 8 8 7 8 8 8 7 7 7 7 7 7 7 7 7 6 5 6 6 5 6 7 7 7 8 8 10 9 7 6 5 4 5 5 5 6 5 6 7 8 13
14 17 12 12 11 9 10 10 10 10 10 11 10 10 9 9 9 10 10 10 9 8 8 8 7 9 8 6 7 7 7 7 7 7 7 8 6 6 6 6 5 6 6 6 6 5 6 8 9 7 7 6 5 6 7 6 6 7 7 7 7 10
12 11 12 13 8 9 9 9 10 9 9 11 8 9 10 8 8 9 9 9 10 8 7 7 6 9 9 7 7 6 7 8 7 7 7 8 7 6 7 6 5 6 6 7 5 4 3 3 8 7 9 9 8 8 7 7 7 7 7 8 7 9
9 7 8 11 6 7 8 7 9 9 8 10 9 8 8 7 8 8 9 9 10 10 8 7 7 7 9 9 8 8 7 7 7 8 6 8 7 6 6 6 6 5 5 5 5 5 5 4 5 4 4 6 7 5 4 5 5 6 9 7 7 7
3 8 14 10 4 5 7 8 9 9 9 9 9 8 9 8 8 8 10 11 9 9 8 8 8 7 9 9 7 8 7 7 6 7 7 7 8 7 5 7 8 5 6 4 4 5 7 4 5 5 4 5 6 5 6 5 5 4 8 8 8 7
8 8 9 5 3 11 9 6 9 9 9 9 9 9 9 8 8 8 8 12 10 9 9 8 6 6 8 8 7 6 7 7 6 5 6 6 10 6 4 5 6 4 5 5 4 4 4 4 3 5 4 6 5 5 4 4 4 6 9 8 8 8
2 1 5 8 7 7 5 8 10 7 7 9 8 8 7 7 7 7 6 10 10 10 8 7 7 5 5 6 7 6 6 7 7 6 5 6 8 6 4 3 4 3 4 5 5 3 4 5 3 4 5 3 6 5 4 6 4 5 8 7 7 8
7 8 7 7 5 7 9 9 1 9 7 6 7 8 7 7 6 5 4 8 9 7 8 8 7 6 5 5 6 6 6 5 7 7 5 5 6 6 5 4 4 4 4 4 4 4 3 5 3 4 5 6 3 7 5 5 4 3 4 6 9 8
9 5 6 6 7 8 6 7 8 4 9 8 5 6 6 7 7 6 5 6 8 8 8 8 7 7 7 6 5 6 6 5 6 6 6 4 5 5 5 6 6 5 5 5 4 4 5 4 4 4 4 6 3 5 5 5 5 5 4 4 5 9
9 9 7 6 7 5 3 4 7 8 7 10 7 7 7 6 7 8 7 7 9 9 8 9 8 7 6 7 6 6 6 7 5 6 6 5 6 4 3 6 5 5 4 4 6 5 4 5 4 4 4 4 4 2 5 6 6 5 6 5 6 5
8 8 8 9 9 7 5 5 5 7 9 7 11 5 6 8 8 8 8 8 11 11 10 11 9 8 7 8 7 6 7 8 6 6 7 5 6 4 4 4 6 5 5 4 5 6 5 5 5 4 4 3 4 3 4 3 3 5 5 6 6 6
8 8 8 9 6 5 4 5 5 5 4 8 5 10 6 8 8 7 8 9 11 11 11 12 11 9 8 8 8 7 7 8 7 6 7 7 6 7 7 6 7 7 6 4 4 5 6 4 6 5 6 5 4 3 4 3 3 3 3 5 7 8
7 7 6 6 5 5 5 6 6 4 5 4 7 8 10 8 8 9 10 10 9 10 11 10 11 10 9 9 8 7 7 9 8 7 8 9 8 8 9 7 5 8 7 5 4 4 5 4 4 5 4 4 6 5 4 4 4 4 3 4 4 6
8 7 6 7 7 7 8 6 5 6 6 6 7 9 10 9 9 9 11 12 11 10 12 12 11 10 9 9 9 7 6 9 9 8 8 9 8 8 7 6 5 6 8 7 5 4 5 4 4 3 3 4 3 6 5 5 7 6 6 5 5 5
7 7 8 8 8 8 8 8 8 8 5 2 1 4 10 9 6 8 12 12 10 11 12 11 10 11 9 9 9 8 7 8 9 9 7 7 8 7 8 8 7 6 7 8 6 7 7 4 5 5 5 3 3 3 5 4 5 6 7 6 6 5
4 5 6 6 6 6 6 6 6 5 8 3 3 7 9 9 6 6 5 8 9 11 13 13 12 11 10 10 9 9 8 7 10 9 8 9 9 10 9 11 10 6 7 6 6 6 7 7 5 5 4 3 5 4 3 4 4 6 6 7 6 8
5 6 6 6 7 6 7 6 6 6 5 7 8 5 9 10 8 8 8 7 8 10 14 13 13 13 11 11 11 10 9 7 10 10 10 9 10 11 10 11 10 9 6 8 8 8 9 7 6 8 7 7 5 6 5 8 7 8 10 9 8 8
6 7 7 7 7 6 5 6 8 8 5 3 4 5 6 10 9 9 10 10 9 11 14 14 14 14 13 13 13 12 11 9 10 11 10 10 11 11 11 10 11 10 10 9 9 6 7 9 8 6 5 5 4 6 7 3 9 8 8 9 10 10
6 6 5 8 8 5 6 8 7 6 8 8 8 8 11 12 10 12 13 12 12 11 12 13 13 14 14 12 13 13 12 10 10 11 11 11 10 10 11 12 12 11 11 10 7 8 7 8 7 8 8 4 3 4 5 5 6 4 6 7 7 9
2 7 6 8 10 9 11 9 8 9 9 10 10 11 11 12 13 13 12 12 11 9 11 12 12 12 13 14 12 13 13 11 10 11 11 10 11 12 11 12 11 11 11 10 10 8 10 8 7 6 9 9 7 5 3 3 2 3 3 5 4 6
4 5 8 10 9 9 10 11 11 11 10 8 8 12 13 12 10 6 9 12 10 10 10 10 10 11 13 13 13 14 14 12 11 12 12 11 11 11 10 11 11 11 10 10 12 10 8 9 10 9 9 10 8 6 6 4 3 2 2 4 5 4
4 1 10 10 10 11 11 9 9 8 8 8 9 10 8 10 10 8 8 12 11 10 10 11 11 10 11 13 12 14 15 14 12 12 12 11 11 12 14 13 13 12 13 11 11 11 8 7 9 9 9 9 9 8 7 5 3 4 3 3 4 7
5 4 2 14 12 12 12 8 8 11 12 12 10 9 10 9 8 8 10 10 12 10 10 10 10 12 11 12 13 13 14 15 14 12 12 13 13 14 14 14 14 13 12 12 10 10 11 8 6 7 9 8 8 7 7 6 6 5 4 4 4 4
6 4 4 3 11 14 13 10 11 14 15 15 15 12 12 10 7 7 9 11 11 11 10 10 10 11 13 13 14 14 14 15 13 12 12 14 14 14 13 14 13 13 13 14 11 10 10 10 7 6 8 8 9 9 10 9 7 7 6 4 5 6
7 6 4 3 6 7 11 11 13 17 16 15 15 13 14 13 12 10 10 12 11 10 11 10 11 10 12 14 13 13 15 15 14 13 14 13 13 13 12 11 11 12 12 13 11 10 10 11 11 6 7 7 8 9 8 7 7 5 7 6 5 4
9 7 5 4 4 7 10 12 12 15 15 13 14 15 14 13 11 10 9 10 9 9 11 12 12 13 13 16 14 13 14 15 15 15 15 13 13 15 12 11 11 11 12 13 12 11 9 11 11 9 7 8 7 9 9 8 6 6 6 6 6 5
11 9 8 7 5 5 7 11 13 14 15 13 14 15 13 13 12 11 10 11 11 11 11 13 14 16 15 17 16 14 14 16 15 15 16 15 13 14 13 12 12 11 11 11 10 11 10 9 10 10 6 8 8 8 8 8 8 7 6 6 6 6
12 11 10 9 7 7 5 10 12 12 12 11 12 11 12 12 12 12 11 11 10 9 10 12 15 15 16 15 16 15 13 15 16 15 16 15 12 13 13 12 11 12 10 9 10 11 10 11 11 12 10 7 9 8 7 8 7 7 7 7 7 7
13 11 11 11 10 8 6 5 11 11 13 14 12 11 10 10 10 10 12 12 12 11 11 11 14 16 16 16 16 17 15 15 16 15 15 16 14 12 12 12 11 11 12 9 10 13 11 11 11 12 11 9 7 9 8 7 7 6 6 6 7 7
15 14 13 12 11 9 7 7 8 12 13 12 12 14 13 14 14 13 12 12 12 14 15 15 15 17 16 16 16 16 16 15 15 15 14 15 15 13 11 11 11 11 12 11 11 12 11 11 10 10 10 12 10 7 7 8 8 7 7 6 6 7
Wind_Direction
167 162 162 159 157 160 160 159 157 155 156 155 156 160 158 158 160 162 161 161 159 161 162 161 167 172 164 167 163 175 162 172 166 169 167 171 169 169 168 163 153 150 163 173 169 172 176 174 178 207 234 261 292 299 311 29 34 35 74 105 113 120
169 164 161 159 159 161 161 164 164 160 161 162 162 162 161 162 161 164 167 162 164 170 165 167 172 177 169 176 167 171 164 169 169 174 176 171 173 176 177 172 166 162 164 171 174 175 181 189 190 202 231 254 273 266 354 14 64 359 86 103 111 134
173 167 163 162 159 155 165 166 166 165 163 168 165 166 168 169 171 170 172 169 171 172 174 169 171 182 172 179 171 174 171 171 172 177 180 177 177 186 185 181 179 169 167 172 174 221 176 173 183 202 220 234 247 248 28 34 68 24 50 113 121 139
178 171 167 170 156 159 167 164 160 167 159 164 167 172 173 173 176 172 173 169 171 178 183 167 174 188 173 175 166 167 171 170 174 178 183 180 186 192 190 191 189 179 172 179 197 202 201 163 164 176 194 208 225 222 137 155 104 99 174 126 135 146
174 174 178 171 160 163 168 172 163 166 164 167 168 173 173 175 177 170 171 168 172 187 187 174 163 186 163 172 161 165 169 173 175 179 183 192 181 189 189 190 192 195 200 194 200 194 189 150 143 173 184 199 216 185 142 133 160 139 138 126 142 148
263 169 184 182 168 164 165 182 172 167 166 173 171 176 173 176 172 171 173 170 179 188 187 189 159 177 181 172 175 174 171 174 177 185 177 204 190 182 191 199 187 190 213 203 193 195 176 158 157 175 189 188 200 139 138 135 181 140 123 141 152 151
306 267 192 202 176 164 177 185 175 173 169 174 174 182 182 175 175 172 174 176 181 187 184 195 161 176 185 176 176 172 172 177 177 185 174 208 196 186 189 207 188 188 200 217 198 194 180 169 169 185 168 177 196 116 136 171 174 150 139 142 157 153
176 226 200 207 191 169 181 188 181 172 174 176 175 179 185 176 176 179 183 175 181 185 181 200 166 171 185 184 181 170 173 179 181 187 173 209 197 190 189 213 194 187 197 216 217 195 188 171 181 180 168 187 170 145 207 187 160 162 139 143 156 156
191 199 185 213 190 184 183 185 186 172 180 173 178 178 185 176 180 176 187 175 180 185 188 195 177 170 178 196 181 173 176 182 184 192 172 199 209 187 189 213 204 193 192 218 228 226 190 161 172 161 165 183 188 174 187 183 163 159 145 150 154 160
206 200 186 205 196 183 180 187 184 179 183 168 182 179 180 182 178 174 183 181 177 188 192 190 193 168 174 194 188 190 180 184 186 192 176 186 214 195 185 206 214 203 193 216 218 208 215 185 160 173 169 174 189 186 186 173 181 162 150 150 149 160
309 291 211 200 201 184 175 185 188 181 183 172 177 177 181 183 176 178 177 188 181 184 189 191 194 174 175 187 189 194 189 185 185 188 190 178 206 214 181 192 220 196 216 205 211 192 173 209 149 185 193 165 163 167 189 164 184 160 149 140 139 154
346 352 338 321 286 209 184 191 195 184 185 178 176 175 181 191 181 180 179 185 188 182 187 192 192 183 173 180 192 187 187 193 188 182 196 176 192 218 186 189 223 202 198 236 205 208 169 204 162 188 196 169 163 168 188 183 172 152 116 139 148 157
189 171 212 215 291 332 323 251 208 188 182 181 181 178 183 190 184 188 181 181 189 186 184 192 191 188 171 175 189 188 187 185 195 193 191 180 181 216 197 189 231 220 177 242 244 209 173 184 190 183 233 173 162 178 193 156 179 137 145 151 155 151
349 309 235 217 180 170 220 305 303 249 194 177 186 181 181 185 187 189 181 178 187 191 185 187 194 191 174 175 182 191 191 178 186 206 193 179 179 182 208 212 230 220 193 211 236 224 160 172 223 170 228 239 155 174 181 164 177 163 150 157 152 148
208 195 205 226 207 202 191 189 192 298 269 203 181 181 180 184 187 191 175 172 182 190 187 188 192 188 195 182 180 182 192 187 179 193 199 180 166 168 173 217 235 218 218 208 221 223 178 168 221 192 209 250 162 167 190 156 160 152 156 162 155 162
214 200 208 218 216 211 224 209 177 179 295 260 200 185 178 180 185 192 185 169 179 185 188 193 193 192 185 189 180 182 189 192 187 181 190 177 169 170 173 199 219 220 204 211 214 228 184 168 202 218 217 202 232 167 167 154 162 174 164 168 165 164
196 198 199 213 225 233 279 234 196 170 202 275 240 192 187 177 188 185 188 179 179 184 188 192 196 197 179 184 193 183 187 195 187 179 177 163 173 178 183 192 217 227 214 199 197 235 213 169 191 219 222 188 212 176 162 185 169 187 180 167 182 170
194 197 202 202 207 209 225 246 259 212 167 199 274 226 185 184 194 190 186 189 178 181 186 193 197 190 184 189 196 197 182 189 191 179 175 158 163 177 205 203 203 223 228 207 192 208 237 178 187 203 209 221 190 183 170 185 204 190 176 176 184 175
194 192 193 199 193 198 218 246 247 275 216 171 212 267 222 196 193 186 191 198 184 180 185 190 194 187 182 190 198 201 190 179 186 185 174 171 169 180 205 214 197 207 229 222 192 194 225 199 182 199 201 210 190 188 166 196 228 200 196 200 177 181
203 192 179 190 187 184 207 224 228 240 267 208 187 224 239 209 193 190 192 199 196 181 184 188 190 188 181 189 199 205 190 177 185 183 180 179 181 187 199 216 210 198 210 229 222 206 220 223 184 187 206 199 187 188 202 190 209 208 215 221 197 176
193 181 176 186 194 194 202 214 232 227 235 230 194 219 244 222 202 197 195 195 196 182 184 186 189 190 190 186 195 206 199 179 180 188 186 186 180 183 194 207 221 202 201 205 223 216 229 214 183 193 196 209 195 187 199 204 202 205 210 211 213 193
170 190 195 195 196 196 200 205 199 205 213 269 292 235 235 242 233 210 198 196 190 177 179 185 188 189 192 189 192 201 207 183 176 186 188 184 179 185 186 206 214 205 200 198 207 211 221 207 203 189 173 195 225 201 207 222 238 216 213 206 200 212
167 197 215 207 194 201 208 219 223 210 186 188 242 254 262 257 246 267 250 207 195 179 179 183 188 188 189 191 193 202 211 190 179 179 183 186 187 191 193 200 208 204 189 204 206 208 222 216 204 180 168 147 202 211 223 227 233 246 237 227 206 199
191 200 202 217 220 206 199 202 257 253 212 184 198 225 267 274 253 247 245 247 216 182 180 183 187 189 190 190 191 200 208 200 183 179 181 185 190 197 196 195 201 205 191 194 207 210 215 220 209 159 198 194 179 185 218 216 212 221 227 235 230 218
213 206 207 169 207 224 212 202 204 221 232 232 243 240 238 254 255 238 237 235 234 193 184 185 184 189 192 189 189 196 203 201 182 182 182 189 193 200 199 197 195 198 198 198 199 207 212 218 213 204 181 162 198 203 218 215 189 223 204 222 232 233
207 228 204 211 193 169 214 217 205 220 214 213 215 217 212 206 226 233 229 226 225 207 191 188 182 188 190 192 191 195 200 201 185 184 188 191 193 196 201 198 197 197 198 198 202 190 211 210 212 217 228 218 196 203 174 220 158 222 189 213 221 224
274 202 216 236 208 194 205 207 202 213 235 222 209 215 213 204 208 219 224 227 220 209 197 190 188 187 187 192 194 194 199 204 190 188 189 191 194 196 198 201 197 197 198 194 206 207 197 192 206 228 227 235 244 259 245 121 218 107 167 208 233 223
309 163 196 217 228 209 208 206 203 203 214 233 240 225 213 209 215 257 257 231 222 215 203 194 194 193 193 194 192 191 197 203 199 189 190 196 196 194 195 199 199 197 197 197 203 213 200 187 188 206 212 228 238 244 265 246 230 219 175 164 216 235
303 256 188 202 218 221 212 209 213 213 215 225 230 249 265 236 210 193 231 261 243 216 208 202 200 200 200 199 193 191 193 200 203 191 191 196 197 196 196 197 196 194 196 197 201 206 205 201 187 194 187 213 226 233 237 239 229 217 208 211 194 190
306 317 167 188 208 222 215 200 199 221 214 218 221 227 233 240 247 209 203 234 246 232 211 205 204 206 210 206 198 193 194 199 202 196 193 198 198 201 196 199 198 196 194 198 199 201 204 208 206 185 185 186 203 216 226 229 217 214 228 224 232 208
312 309 287 214 198 199 208 190 200 224 221 221 224 216 222 222 236 240 211 214 229 235 219 211 204 205 212 214 204 198 195 198 201 202 198 198 200 201 198 197 197 192 193 197 199 200 198 207 214 198 185 178 194 203 205 207 204 200 204 205 212 238
313 305 296 279 202 207 189 182 201 221 225 221 223 225 226 222 203 220 223 217 206 235 249 223 210 206 208 217 213 201 195 196 200 205 206 203 199 199 202 196 194 191 196 197 198 199 196 201 209 211 194 185 192 200 210 214 208 203 192 208 198 211
307 303 299 288 254 208 201 197 195 210 219 220 218 222 226 225 215 205 213 223 221 221 231 234 220 209 206 212 216 205 194 195 198 203 208 205 198 197 200 196 195 195 194 194 196 197 196 198 201 210 197 196 190 195 206 209 213 207 197 186 183 201
308 307 298 286 270 262 210 200 202 207 216 218 217 215 221 222 217 205 207 213 212 210 220 232 223 213 207 207 214 211 201 198 200 199 202 206 200 196 197 196 192 197 193 192 191 197 204 199 203 212 204 195 201 200 203 204 202 206 190 177 191 201
305 302 299 291 282 264 239 200 206 211 212 217 225 221 223 221 224 216 207 214 217 218 223 231 235 220 211 206 208 211 207 202 202 200 198 203 206 201 199 194 189 193 192 186 190 195 205 203 202 206 213 205 199 205 207 205 205 202 195 190 189 187
305 305 301 294 286 275 261 226 209 209 214 214 215 218 227 225 228 226 223 216 213 216 220 229 244 237 215 204 201 205 209 208 204 201 196 199 204 206 199 191 188 187 190 186 190 196 201 205 206 203 210 213 209 209 206 212 213 210 206 196 187 184
312 308 302 297 291 283 274 267 210 213 217 219 209 209 217 220 222 222 225 221 219 214 217 221 228 236 224 209 199 200 206 209 206 203 198 196 201 207 202 191 189 186 190 188 191 196 197 203 207 203 206 210 215 218 208 203 210 212 209 216 201 186